Location: Shannon
(40.5500°S, 175.4167°E)
Time: 08:19:41
(UTC+00:00)

IDEFIX/ARIANE 42P - Pass Details

Date: 17 November 2025
Orbit: 779 x 798 km, 98.6° (Epoch: 14 December)

Event Time Altitude Azimuth Distance (km) Brightness Sun altitude
Exits shadow 14:14:43 21° 257° (WSW) 1,728 4.1 -23.0°
Drops below altitude 10° 14:17:44 10° 223° (SW) 2,377 5.2 -22.6°
Sets 14:20:37 0° 208° (SSW) 3,319 6.2 -22.3°
